Probability
0 0 0 0 0 0 0 0 1 2 1 0 0 1 3 3 2 2 3 4 4 2 1 2 3 4 4 2 1 0 0 0 1 2 3 3 2 3 5 7 6 4 3
0 0 0 0 0 0 0 0 1 1 1 0 0 1 2 2 1 1 2 3 3 3 2 2 3 3 3 2 1 0 0 1 2 3 3 3 2 2 3 4 4 4 3
0 0 0 0 0 0 0 0 0 0 0 0 0 1 1 1 0 1 2 3 3 2 2 2 1 1 1 1 1 0 0 2 4 4 4 4 3 2 1 2 2 3 2
0 0 0 0 0 0 0 0 0 0 0 0 1 1 0 0 0 2 3 2 1 1 1 1 1 1 1 1 1 1 2 4 7 7 6 6 5 4 3 2 2 2 1
0 0 0 0 0 0 0 0 0 1 1 1 2 2 1 1 1 1 2 1 0 0 0 0 0 1 1 2 4 5 5 6 8 8 7 8 7 6 5 4 3 3 3
0 0 0 0 0 0 0 1 1 2 2 3 3 3 3 3 2 2 2 1 0 0 0 0 0 0 2 3 5 6 7 8 8 8 9 10 9 7 6 4 4 4 4
0 0 0 0 1 1 1 2 3 4 4 4 4 4 3 3 3 2 2 1 0 0 0 0 0 0 1 2 2 3 6 8 9 10 12 12 11 10 8 6 5 5 4
0 0 1 2 4 3 3 4 5 5 5 5 6 6 4 2 1 1 1 1 0 0 0 0 0 0 0 0 0 1 4 7 9 10 10 10 11 11 10 9 8 8 8
2 2 4 5 5 5 4 4 6 6 7 7 8 8 5 3 2 1 1 1 0 0 0 0 0 1 1 0 0 0 2 4 6 7 7 8 8 8 9 9 9 10 12
4 5 5 5 4 4 3 4 6 7 8 9 9 9 8 6 5 3 2 1 0 0 0 0 0 0 1 2 2 1 2 2 2 3 4 6 7 7 8 8 7 8 11
5 4 3 3 3 3 3 4 5 6 8 9 9 10 9 8 7 5 3 1 1 0 0 0 0 0 1 2 3 2 1 1 0 0 1 3 5 7 8 7 5 6 7
4 2 1 1 1 3 3 3 4 5 6 8 9 9 9 7 7 6 5 4 2 1 0 0 0 0 1 2 2 1 0 0 0 0 0 1 2 5 6 6 5 4 5
5 4 3 2 2 3 3 3 4 6 7 8 10 9 8 7 6 6 7 7 5 2 1 1 0 0 0 0 0 0 0 0 0 0 0 0 0 1 3 4 3 2 3
6 6 5 5 5 4 4 4 5 7 8 9 10 9 8 7 7 8 9 9 8 6 3 2 0 0 0 0 0 0 1 0 0 0 0 0 0 0 1 2 1 1 1
4 5 6 7 7 6 6 6 7 8 8 9 10 9 7 8 9 9 9 10 9 8 5 2 0 0 0 0 0 0 0 0 0 0 0 0 0 0 1 1 1 0 0
4 6 7 9 9 8 7 8 9 10 10 10 9 8 7 7 8 9 9 9 9 7 5 1 0 0 0 1 1 1 1 1 1 0 0 0 0 0 0 0 0 0 0
5 8 11 12 11 10 9 9 10 11 11 11 9 8 7 7 8 8 8 8 7 7 5 2 0 0 1 2 2 2 2 2 2 1 0 0 0 0 0 0 0 0 0
4 8 12 12 12 12 11 10 10 12 12 11 10 8 7 7 8 7 6 5 6 6 6 3 1 1 2 3 3 3 3 3 2 1 0 0 1 1 0 0 0 0 0
5 7 9 10 11 13 13 14 14 13 12 11 11 10 8 8 8 7 6 4 4 6 6 4 3 3 3 3 3 3 3 3 1 0 0 0 1 2 1 0 0 0 0
10 10 9 10 11 12 14 15 16 14 12 12 11 10 10 9 8 7 7 5 5 5 5 4 3 3 3 3 3 3 3 2 1 0 0 1 2 3 2 1 0 0 0
14 13 12 12 12 12 11 11 12 12 11 11 10 9 9 8 6 5 6 6 4 4 4 3 3 3 3 3 3 3 3 2 0 0 1 1 2 2 2 1 0 0 0
14 14 14 13 12 10 8 6 7 9 9 9 8 7 7 6 4 3 3 2 2 2 3 4 4 4 4 4 3 3 2 1 0 0 0 1 1 1 1 1 0 0 0
14 14 14 13 11 9 6 3 3 6 6 6 6 6 6 5 4 2 1 0 0 1 2 4 6 5 5 4 3 1 1 1 0 0 0 0 0 0 0 0 0 0 0
16 16 16 14 11 8 4 1 1 3 5 6 6 7 7 6 4 2 1 1 0 0 1 3 4 4 4 4 3 1 0 0 0 0 0 0 0 0 0 0 0 0 0
17 16 15 13 10 7 3 0 1 3 5 7 8 8 7 6 5 2 2 2 1 1 1 1 1 2 2 2 2 1 0 0 0 0 0 0 0 0 0 0 0 0 0
16 14 11 10 8 5 2 1 1 3 6 8 9 9 8 7 5 2 2 2 1 2 2 1 0 1 1 1 1 0 0 0 0 0 0 0 0 0 0 0 0 0 0
Wind_Speed
1 1 1 1 1 1 1 1 1 2 2 2 3 3 4 4 4 3 3 6 7 7 7 8 7 7 8 8 8 8 8 9 9 9 9 9 10 11 11 11 11 11 10
1 1 1 1 1 1 1 1 2 1 1 2 2 3 3 3 3 3 3 4 6 6 6 7 7 8 8 8 8 8 8 9 9 9 9 10 10 10 11 11 11 11 11
1 1 1 1 1 1 1 1 1 1 1 1 2 2 2 2 2 2 2 2 3 5 6 7 7 7 8 8 8 8 8 8 8 8 9 9 9 10 10 12 12 12 12
2 1 1 1 1 1 1 1 1 1 1 1 1 2 1 1 2 2 2 2 2 3 4 7 7 7 8 8 7 8 8 8 8 8 9 9 9 9 9 10 10 10 10
1 1 1 1 1 1 1 1 0 0 1 1 1 1 1 1 2 2 2 2 2 2 2 4 5 6 6 6 6 7 7 7 8 8 9 9 9 9 8 9 10 10 10
0 0 0 1 0 0 1 1 1 0 1 1 1 1 1 2 1 1 2 2 2 2 2 2 3 4 5 5 6 7 7 7 7 7 8 8 9 9 9 8 9 9 9
0 0 0 0 0 0 1 1 0 0 1 1 1 2 2 1 1 1 1 1 1 2 1 2 2 2 2 4 5 6 6 7 7 6 7 7 8 8 9 9 9 9 10
0 0 0 0 0 0 0 1 0 0 1 0 0 1 2 3 2 1 0 0 1 1 1 2 2 2 2 2 3 4 5 6 5 6 6 7 7 7 8 9 9 9 9
0 0 0 0 0 0 0 0 0 1 0 0 0 1 0 2 2 2 1 1 1 1 1 2 2 2 2 2 3 3 4 4 4 5 6 6 6 6 7 8 8 8 9
1 0 0 0 0 0 0 1 0 1 1 0 0 0 1 1 1 2 2 1 1 1 2 2 2 2 2 2 2 3 3 3 4 5 5 5 6 6 6 7 8 9 9
1 1 0 0 0 0 1 1 0 1 1 1 1 1 1 0 1 2 3 2 2 1 2 2 2 2 2 2 2 2 3 3 3 3 4 4 5 5 5 5 7 7 8
2 2 1 0 1 1 1 1 1 1 1 1 1 1 1 1 1 2 2 2 2 2 2 2 2 2 2 2 3 3 3 3 2 3 3 4 5 4 4 5 6 6 7
1 2 1 1 1 1 1 1 1 1 1 1 1 1 1 1 1 2 2 2 2 2 2 1 1 1 2 2 2 4 3 3 3 3 4 4 4 4 4 4 5 5 6
1 1 1 1 1 1 1 0 1 1 1 1 1 1 1 1 1 1 2 2 1 2 2 3 1 1 2 2 3 4 3 3 3 3 3 3 3 3 3 3 3 4 4
1 1 1 1 1 1 1 0 0 1 1 1 1 1 1 1 1 1 1 2 2 2 3 2 2 2 2 1 3 3 3 3 3 3 3 3 3 3 3 3 3 3 3
1 0 1 1 1 1 1 0 1 1 1 1 1 1 1 1 1 1 1 1 2 2 2 2 2 2 2 2 2 2 2 3 3 3 3 3 3 3 3 2 2 2 3
1 1 1 1 1 1 1 1 1 1 1 2 2 1 2 2 1 1 1 1 1 2 3 2 2 2 2 2 3 2 2 1 1 2 3 3 3 2 2 2 2 2 3
1 1 1 1 1 1 1 1 2 2 1 2 2 2 3 2 2 1 1 1 1 2 2 3 2 2 2 2 2 2 2 1 1 2 2 3 3 2 2 1 1 2 2
1 1 1 1 1 1 1 2 2 2 1 2 2 2 2 1 2 1 1 1 1 1 1 1 2 1 1 1 2 2 2 2 2 1 1 2 3 2 2 2 2 2 2
2 2 2 2 2 2 2 2 2 2 2 2 2 2 2 2 2 2 2 2 1 1 0 1 1 1 1 1 1 1 2 2 2 2 2 2 2 2 2 2 2 2 2
2 2 2 2 2 2 2 2 2 2 2 2 2 2 2 2 2 1 2 2 1 1 1 1 1 1 1 1 1 1 1 2 1 2 2 2 2 1 1 2 2 3 3
2 2 2 2 2 2 2 3 2 2 2 2 3 3 3 3 3 3 3 2 2 2 2 2 2 2 2 1 1 1 1 1 2 1 1 2 2 2 2 1 3 3 3
2 2 3 3 3 3 3 3 2 1 2 2 3 3 3 2 2 2 3 2 2 2 3 3 3 3 2 2 2 1 1 1 2 1 1 1 1 2 2 2 3 3 3
2 2 3 3 3 3 3 3 2 1 2 2 2 3 3 2 2 1 1 2 2 2 3 2 3 3 3 3 3 2 2 1 1 1 0 1 1 2 2 2 2 3 3
2 2 2 2 3 3 2 2 1 1 1 2 3 2 2 2 3 1 1 1 2 3 2 1 0 1 1 1 2 2 1 1 1 1 0 1 1 2 2 2 1 2 3
2 2 2 1 2 2 2 2 1 1 1 2 2 2 2 2 2 1 1 1 1 3 2 2 2 2 1 1 2 2 2 2 1 1 1 1 1 1 1 1 1 2 2
Wind_Direction
248 280 294 294 295 285 263 263 262 264 269 265 252 242 239 240 243 247 259 256 254 249 246 245 244 246 243 239 233 235 236 233 229 228 229 230 232 233 233 231 231 229 227
209 249 293 308 305 298 279 264 259 257 268 268 272 262 245 243 246 248 252 263 258 252 252 254 249 251 251 242 237 238 240 240 231 231 233 234 236 239 237 233 233 232 230
199 213 249 289 299 307 308 303 306 305 283 276 276 278 256 250 253 255 258 261 266 262 256 254 254 258 256 247 241 239 238 239 236 234 234 235 236 239 240 235 234 236 233
192 190 224 279 304 324 326 307 303 320 304 295 277 281 275 258 255 254 256 264 267 268 266 261 260 261 257 249 242 238 234 233 235 238 237 238 237 239 239 235 235 238 237
177 167 232 292 345 345 324 292 294 234 285 294 283 291 289 261 259 266 264 262 261 264 267 278 273 271 263 249 243 241 237 233 235 239 241 239 237 236 233 232 234 234 235
98 115 304 344 51 10 333 316 293 276 251 288 311 317 299 282 265 255 256 254 258 262 269 278 283 282 278 270 260 252 246 240 240 243 244 244 241 236 232 231 231 230 231
30 116 325 14 83 148 267 301 292 327 322 343 358 333 327 318 305 261 250 253 274 273 280 280 280 282 287 287 276 263 255 251 249 249 251 250 246 238 234 233 234 235 234
312 218 185 211 151 173 15 11 27 350 328 21 99 13 343 340 340 329 291 226 268 283 285 278 270 273 283 289 292 273 265 268 266 258 256 255 250 243 236 235 237 239 236
285 256 209 187 202 159 210 267 167 168 226 322 105 146 162 274 314 324 324 328 314 290 285 286 278 280 273 274 283 292 285 294 287 279 266 256 255 252 249 245 241 242 239
340 316 77 185 193 154 230 264 171 206 179 253 304 270 215 199 236 309 316 318 313 298 287 285 292 286 284 276 284 299 299 298 295 295 297 277 263 260 260 257 251 246 243
345 347 63 67 33 259 269 292 292 217 199 199 207 228 236 264 219 226 283 308 312 288 278 276 278 283 292 285 284 297 301 305 305 307 310 307 292 276 268 266 264 255 250
339 341 354 348 291 283 272 262 252 241 232 216 214 197 197 205 220 210 242 279 290 291 287 280 269 276 290 295 302 318 303 302 301 299 302 301 303 293 280 271 265 260 259
318 316 318 299 289 279 268 257 254 270 257 235 228 235 230 239 228 206 215 255 281 301 310 293 268 274 280 288 296 311 311 314 310 307 305 303 298 291 290 292 282 270 266
255 284 302 295 289 290 288 253 249 265 280 260 263 250 246 257 241 217 203 206 271 296 298 288 283 265 284 284 283 290 293 300 302 301 296 299 300 289 277 289 302 292 278
241 315 311 308 305 300 292 229 262 279 276 269 277 276 273 271 251 241 219 205 202 261 286 286 290 296 287 283 301 288 280 298 309 307 304 299 308 293 279 276 289 300 308
269 282 295 294 306 313 303 256 277 292 295 293 277 298 300 282 277 258 233 223 210 211 254 272 263 290 304 302 309 297 295 321 329 332 329 317 307 306 299 289 300 302 304
230 224 238 255 290 310 307 287 292 312 298 307 316 302 297 299 304 293 250 221 228 214 241 277 270 288 291 307 323 313 301 298 308 334 343 339 330 318 307 301 308 310 312
227 220 217 226 256 278 290 276 280 294 289 297 302 305 301 314 320 315 273 242 238 230 222 260 289 292 291 304 316 311 319 318 296 343 344 352 351 355 353 335 322 317 316
228 229 210 222 247 260 261 265 258 260 256 261 267 272 287 304 303 303 287 273 261 257 233 241 278 282 291 316 321 318 333 339 325 350 354 12 18 17 12 14 5 350 334
212 225 231 240 248 249 251 260 260 254 260 263 256 254 264 256 260 272 271 270 260 257 271 254 279 300 290 311 320 327 332 335 332 352 355 359 12 15 22 22 14 9 355
226 229 231 247 250 237 242 246 252 259 266 275 283 282 270 267 274 275 272 254 228 218 219 234 272 301 295 329 309 300 308 317 310 349 340 352 2 358 354 358 7 8 2
242 234 235 235 242 250 260 250 238 246 266 270 278 289 290 289 299 311 311 275 213 212 216 218 235 246 262 260 267 272 299 332 314 349 343 340 6 348 336 350 9 9 7
237 240 242 238 243 258 273 276 273 257 259 267 271 283 292 304 321 306 318 318 292 263 225 216 228 238 239 228 208 231 237 259 274 307 335 323 342 331 325 344 356 7 12
241 245 243 244 251 264 282 294 298 275 271 275 270 265 273 290 293 291 294 310 305 291 265 234 231 237 235 218 205 212 224 257 288 269 282 288 314 308 315 323 355 13 10
252 252 241 235 249 276 300 313 334 280 291 291 282 273 263 266 273 250 223 292 315 312 310 329 287 305 304 164 158 145 154 169 297 274 229 248 287 307 304 296 337 7 4
238 240 244 239 244 272 300 313 313 212 278 295 298 294 284 288 282 218 197 209 284 294 312 330 351 356 9 128 150 170 181 193 230 259 202 225 260 305 305 302 310 326 345